GRUS-1B

导读

GRUS-1B是日本于2021年3月22日08:00发射的低轨遥感卫星,隶属于GRUS星座计划。作为四国集团合作研制的微卫星系列成员,它配备高分辨率光学相机,具备1米级地面成像能力,主要用于对地观测、灾害监测与城市遥感等任务。该卫星运行在太阳同步轨道,延续了日本发展低成本商业遥感星座的技术路线,服务全球地理信息获取需求。

基本信息
目录编号:
47934
目录名称:
GRUS-1B
国际标识:
2021-022C
轨道中心:
EARTH
卫星名称:
GRUS-1B
卫星全名:
--
卫星状态:
在轨 (已飞行1911 天)
发射日期:
2021-03-22 UTC
国别 :
日本 (JP)
星等 :
--
轨道信息
数据来源 国际轨道数据 AOE轨道数据
星历时间 2026-06-15T04:10:19+0800
4小时前
查看轨道信息
2026-06-14T02:00:00+0800
1天前
查看轨道信息
半长轴 6948.477km 6948.393km
偏心率 0.0015442 0.0015271
轨道倾角 97.542° 97.541°
近地点辐角 336.695° 340.170°
升交点赤经 49.118° 48.062°
平近点角 23.357° 259.298°
近地点 559.61km 559.645km
远地点 581.07km 580.867km
周期 96.071分钟 96.070分钟
每日圈数 14.988852 14.989123
详细信息
使用方式:
暂无
2D轨道图
3D轨道图
轨道高度分析图
轨道倾角分析图
轨道综合分析图
查看轨道综合分析图